Location: Copper Breaks State Park
(34.1132°N, 99.7492°W)
Time: 13:35:00
(UTC-05:00)

Amateur Radio Satellites - All Passes

Search period start: 24 July 2016 13:05
Search period end: 25 July 2016 13:05
Location: Copper Breaks State Park, 34.1132°N, 99.7492°W

Satellite Date Start Highest point End Downlink Frequencies (MHz)
Time Altitude Azimuth
AUBIESAT-1 24 Jul 13:09:04 13:11:12 13° 299° (WNW) 13:13:21 437.475
VELOX 1 24 Jul 13:16:44 13:21:08 63° 101° (ESE) 13:25:32 145.980
CUBEBUG 1 24 Jul 13:26:30 13:30:54 83° 285° (WNW) 13:35:19 437.445
NANOSAT C BR1 24 Jul 13:32:13 13:35:01 17° 266° (W) 13:37:51 145.865
SPROUT 24 Jul 13:35:57 13:40:07 46° 100° (E) 13:44:16 437.525
DUCHIFAT 1 24 Jul 13:38:22 13:40:56 16° 266° (W) 13:43:31 145.980
Oscar 19 24 Jul 13:41:48 13:46:20 33° 70° (ENE) 13:50:53 437.125/150
50 SAT 24 Jul 13:54:31 13:57:44 30° 287° (WNW) 14:00:54 437.505
Cosmos 2504 24 Jul 13:55:25 14:02:20 25° 289° (WNW) 14:09:21 435.465 / 435.565
AISAT 24 Jul 14:01:29 14:05:33 36° 288° (WNW) 14:09:37 437.250
BUGSAT 1 24 Jul 14:06:13 14:08:48 16° 266° (W) 14:11:26 437.445
AIST 1 24 Jul 14:10:23 14:14:10 32° 91° (E) 14:17:57
DX 1 24 Jul 14:12:30 14:16:34 39° 288° (WNW) 14:20:37 434.975-435.025
ESTCUBE 1 24 Jul 14:24:59 14:26:59 13° 294° (WNW) 14:28:59 437.505/2401.250
JAS-2 24 Jul 14:30:14 14:35:25 25° 263° (W) 14:40:10 435.910
UKube-1 24 Jul 14:32:31 14:36:16 29° 289° (WNW) 14:39:59 .
Gurwin Techsat 1B 24 Jul 14:35:55 14:41:01 50° 73° (ENE) 14:46:09 435.225
TISAT 1 24 Jul 14:43:00 14:47:14 63° 101° (E) 14:51:26 437.305
AO-85 24 Jul 14:43:29 14:48:28 39° 113° (ESE) 14:53:21 145.980
SWISSCUBE 24 Jul 14:50:32 14:52:51 13° 93° (E) 14:55:09 437.505
VELOX 1 24 Jul 14:56:29 14:57:01 10° 295° (WNW) 14:57:34 145.980
ITAMSAT 1 24 Jul 15:09:05 15:13:43 33° 70° (ENE) 15:18:22 435.822/435.867
RS-15 24 Jul 15:09:17 15:18:01 21° 32° (NNE) 15:26:42 29.354- 29.394
BEESAT 24 Jul 15:11:10 15:14:46 21° 95° (E) 15:18:20 436.000
SPROUT 24 Jul 15:13:41 15:15:37 13° 293° (WNW) 15:17:32 437.525
Cosmos 2499 24 Jul 15:15:04 15:18:16 12° 78° (ENE) 15:21:27 435.465 / 435.565
Oscar 19 24 Jul 15:21:36 15:25:39 23° 264° (W) 15:29:42 437.125/150
CUSAT 1 24 Jul 15:26:10 15:28:02 15° 80° (E) 15:30:05 437.405
ITUPSAT 1 24 Jul 15:31:34 15:35:55 34° 98° (E) 15:40:13 437.325
AIST 1 24 Jul 15:49:18 15:51:49 15° 285° (WNW) 15:54:21
AO-7 24 Jul 15:58:53 16:06:58 56° 67° (ENE) 16:15:04 29.400- 29.500
GONETS M04 24 Jul 16:11:48 16:20:04 51° 89° (E) 16:28:21
Gurwin Techsat 1B 24 Jul 16:17:54 16:21:11 16° 267° (W) 16:24:29 435.225
MOZHAYETS 4 24 Jul 16:20:44 16:22:45 13° 92° (E) 16:24:46
AO-85 24 Jul 16:24:32 16:29:01 27° 307° (NW) 16:33:24 145.980
SWISSCUBE 24 Jul 16:26:16 16:30:52 49° 287° (WNW) 16:35:26 437.505
BEESAT 24 Jul 16:48:19 16:52:32 32° 289° (WNW) 16:56:44 436.000
ITAMSAT 1 24 Jul 16:48:56 16:53:09 24° 264° (W) 16:57:23 435.822/435.867
STARS 24 Jul 16:55:37 16:57:55 14° 94° (E) 17:00:13 437.465
Cosmos 2499 24 Jul 17:01:08 17:09:57 79° 94° (E) 17:18:46 435.465 / 435.565
DANDE 24 Jul 17:01:19 17:03:55 80° 261° (W) 17:06:46 436.750
CUSAT 1 24 Jul 17:08:04 17:09:52 14° 264° (W) 17:11:52 437.405
ITUPSAT 1 24 Jul 17:10:00 17:13:28 20° 292° (WNW) 17:16:55 437.325
RS-15 24 Jul 17:21:04 17:33:25 68° 58° (ENE) 17:45:30 29.354- 29.394
PHONESAT 2.4 24 Jul 17:35:15 17:37:01 14° 143° (SE) 17:38:47 2401.200-2431.200
KKS-1 24 Jul 17:43:05 17:47:34 72° 284° (WNW) 17:52:01 437.445
Cubesat XI-IV 24 Jul 17:44:33 17:45:35 11° 62° (ENE) 17:46:38 437.490
SO-50 24 Jul 17:45:58 17:48:29 14° 47° (NE) 17:50:57 436.795
AO-7 24 Jul 17:53:06 17:59:58 28° 263° (W) 18:06:55 29.400- 29.500
MOZHAYETS 4 24 Jul 17:55:45 18:00:09 48° 286° (WNW) 18:04:30
HORYU 2 24 Jul 18:01:20 18:05:48 75° 258° (WSW) 18:10:18 437.375
LilacSat-2 24 Jul 18:06:06 18:06:59 11° 67° (ENE) 18:07:52 437.200
CUTE-I 24 Jul 18:06:18 18:09:57 19° 66° (ENE) 18:13:34 437.470
GONETS M04 24 Jul 18:09:49 18:17:06 30° 287° (WNW) 18:24:28
NOAA 18 24 Jul 18:16:20 18:20:43 25° 67° (ENE) 18:25:08 137.9125
STARS 24 Jul 18:30:14 18:34:26 42° 287° (WNW) 18:38:36 437.465
NOAA 15 24 Jul 18:34:42 18:39:42 48° 72° (ENE) 18:44:44 137.62
GOMX 1 24 Jul 18:37:00 18:40:04 20° 69° (ENE) 18:43:11 467.674
DOVE 4 24 Jul 18:46:59 18:48:11 11° 65° (ENE) 18:49:23 437.250
BRITE-PL 24 Jul 18:56:34 19:00:47 86° 258° (WSW) 19:04:56 437.365/2234.400
Cosmos 2499 24 Jul 18:57:50 19:03:52 20° 291° (WNW) 19:09:54 435.465 / 435.565
CUBESAT XI-V 24 Jul 19:06:48 19:11:24 74° 284° (WNW) 19:16:00 437.345
PHONESAT 2.4 24 Jul 19:10:09 19:13:14 80° 338° (NNW) 19:16:18 2401.200-2431.200
Cubesat XI-IV 24 Jul 19:19:29 19:24:52 85° 257° (WSW) 19:30:17 437.490
SO-50 24 Jul 19:24:50 19:29:21 59° 244° (WSW) 19:33:44 436.795
RS-15 24 Jul 19:34:50 19:44:57 32° 257° (WSW) 19:54:56 29.354- 29.394
LilacSat-2 24 Jul 19:37:09 19:40:50 43° 261° (W) 19:44:34 437.200
PCSat 24 Jul 19:41:06 19:45:00 21° 106° (ESE) 19:48:57 145.827
CUTE-I 24 Jul 19:44:23 19:49:34 48° 260° (W) 19:54:45 437.470
CANX-2 24 Jul 19:49:36 19:51:57 15° 68° (ENE) 19:54:20 2200.000
NOAA 18 24 Jul 19:56:03 20:01:07 37° 261° (W) 20:06:14 137.9125
CUTE 1.7 + AOD 2 24 Jul 20:03:00 20:05:55 18° 69° (ENE) 20:08:50 437.475
BEESAT 3 24 Jul 20:11:38 20:15:29 65° 299° (WNW) 20:19:24 437.485
BEESAT 2 24 Jul 20:11:53 20:15:45 59° 116° (ESE) 20:19:39 435.950
GOMX 1 24 Jul 20:14:38 20:18:02 24° 264° (W) 20:21:28 467.674
NOAA 15 24 Jul 20:16:20 20:19:40 17° 266° (W) 20:23:01 137.62
DOVE 4 24 Jul 20:21:15 20:25:20 51° 261° (W) 20:29:35 437.250
YUBILEINY 24 Jul 20:26:04 20:29:42 13° 64° (ENE) 20:33:19 435.215
HO-68 24 Jul 20:31:57 20:38:58 60° 71° (ENE) 20:46:02 435.675
CUBEBUG 2 24 Jul 20:44:17 20:47:34 20° 68° (ENE) 20:50:55 437.445
SEEDS 24 Jul 20:46:18 20:50:16 40° 74° (ENE) 20:54:14 437.485
PHONESAT 2.4 24 Jul 20:47:20 20:50:00 26° 352° (N) 20:52:41 2401.200-2431.200
CINEMA 3 24 Jul 20:53:17 20:57:40 89° 274° (W) 21:02:17 145.822/145.860
COMPASS 1 24 Jul 21:03:26 21:07:25 44° 74° (ENE) 21:11:25 437.405
STRAND 1 24 Jul 21:03:34 21:08:42 84° 284° (WNW) 21:13:47 437.568
Oscar 11 24 Jul 21:22:34 21:25:58 23° 70° (ENE) 21:29:22 145.826/435.025
PCSat 24 Jul 21:22:53 21:28:02 44° 301° (WNW) 21:33:13 145.827
CANX-2 24 Jul 21:23:26 21:27:27 39° 262° (W) 21:31:29 2200.000
AAUSAT CUBESAT 2 24 Jul 21:34:25 21:38:35 86° 75° (ENE) 21:42:45 437.432
CUTE 1.7 + AOD 2 24 Jul 21:37:41 21:41:30 31° 263° (W) 21:45:18 437.475
O/OREOS (USA 219) 24 Jul 21:41:29 21:45:49 51° 106° (ESE) 21:50:09 437.305
Cosmos 2491 24 Jul 21:41:31 21:48:15 26° 83° (E) 21:54:58 435.465 / 435.565
PRISM 24 Jul 21:42:11 21:45:44 28° 98° (E) 21:49:17 437.425
M-CUBED/EXP-1 PRIME 24 Jul 21:47:57 21:50:37 19° 64° (ENE) 21:53:25 437.505
AIST 2 24 Jul 21:49:07 21:52:35 27° 112° (ESE) 21:56:07 435.215
BEESAT 2 24 Jul 21:52:46 21:53:56 11° 312° (NW) 21:55:06 435.950
Cosmos 2504 24 Jul 22:00:07 22:04:56 17° 67° (ENE) 22:09:34 435.465 / 435.565
UWE-3 24 Jul 22:03:08 22:07:37 77° 257° (WSW) 22:12:15 435.000/436.395/437.385
ZACube-1 24 Jul 22:10:07 22:14:35 81° 78° (ENE) 22:19:10 437.345
FUNcube-1 24 Jul 22:10:47 22:15:14 77° 77° (ENE) 22:19:49 145.935
ISS 24 Jul 22:11:08 22:14:05 32° 131° (SE) 22:17:02 145.825
HUMSAT D 24 Jul 22:15:06 22:17:59 18° 69° (ENE) 22:20:52 437.325/437.525
AUBIESAT-1 24 Jul 22:15:43 22:19:03 34° 67° (ENE) 22:22:38 437.475
YUBILEINY 24 Jul 22:19:00 22:27:54 80° 83° (E) 22:36:42 435.215
CUBEBUG 2 24 Jul 22:19:52 22:23:54 32° 263° (W) 22:28:04 437.445
DELFI C3 24 Jul 22:21:02 22:24:49 43° 75° (ENE) 22:28:37 145.870
HO-68 24 Jul 22:21:49 22:27:01 21° 266° (W) 22:32:16 435.675
SEEDS 24 Jul 22:24:06 22:26:06 13° 267° (W) 22:28:05 437.485
PHONESAT 2.4 24 Jul 22:24:20 22:27:02 27° 9° (N) 22:29:43 2401.200-2431.200
COMPASS 1 24 Jul 22:41:41 22:43:09 12° 268° (W) 22:44:38 437.405
Oscar 11 24 Jul 22:58:19 23:01:56 25° 264° (W) 23:05:34 145.826/435.025
PRISM 24 Jul 23:18:01 23:20:48 18° 291° (WNW) 23:23:36 437.425
TIGRISAT 24 Jul 23:18:29 23:22:25 27° 96° (E) 23:26:16 435.000
AO-85 24 Jul 23:21:32 23:22:48 11° 45° (NE) 23:24:03 145.980
M-CUBED/EXP-1 PRIME 24 Jul 23:22:08 23:25:00 22° 260° (W) 23:28:02 437.505
O/OREOS (USA 219) 24 Jul 23:23:32 23:25:31 13° 302° (WNW) 23:27:30 437.305
AIST 2 24 Jul 23:27:50 23:31:02 22° 307° (NW) 23:34:16 435.215
UNISAT 6 24 Jul 23:33:32 23:37:57 43° 98° (E) 23:42:16 437.425
Cosmos 2491 24 Jul 23:35:55 23:44:25 57° 280° (W) 23:52:59 435.465 / 435.565
ESTCUBE 1 24 Jul 23:42:21 23:46:14 29° 71° (ENE) 23:50:06 437.505/2401.250
ISS 24 Jul 23:48:02 23:50:33 20° 326° (NW) 23:53:05 145.825
HUMSAT D 24 Jul 23:49:27 23:53:19 32° 263° (W) 23:57:13 437.325/437.525
UKube-1 24 Jul 23:50:20 23:51:17 11° 65° (ENE) 23:52:15 .
Cosmos 2504 24 Jul 23:51:10 23:59:19 79° 266° (W) 00:06:50 435.465 / 435.565
AUBIESAT-1 24 Jul 23:52:06 23:53:42 12° 264° (W) 23:55:21 437.475
DELFI C3 24 Jul 23:59:00 23:59:51 11° 268° (W) 00:00:41 145.870
PHONESAT 2.4 25 Jul 00:00:41 00:03:46 89° 14° (NNE) 00:06:50 2401.200-2431.200
QB50P1 25 Jul 00:05:50 00:07:45 13° 93° (E) 00:09:40 145.935-145.965
VELOX 1 25 Jul 00:10:29 00:14:25 34° 72° (ENE) 00:18:23 145.980
POPSAT HIP 1 25 Jul 00:11:32 00:14:00 15° 94° (E) 00:16:27 437.405
ANTELSAT 25 Jul 00:12:00 00:16:37 67° 284° (WNW) 00:21:06 437.575/2403.000
YUBILEINY 25 Jul 00:18:18 00:23:33 18° 280° (W) 00:28:47 435.215
CUBEBUG 1 25 Jul 00:18:38 00:22:46 48° 74° (ENE) 00:26:56 437.445
SPROUT 25 Jul 00:26:24 00:29:41 22° 70° (ENE) 00:33:00 437.525
50 SAT 25 Jul 00:27:43 00:31:20 57° 76° (ENE) 00:34:57 437.505
QB50P2 25 Jul 00:30:42 00:34:24 28° 97° (E) 00:38:04 145.880/145.840
POLYITAN 1 25 Jul 00:33:19 00:37:03 28° 97° (E) 00:40:46 437.675
AISAT 25 Jul 00:54:32 00:58:53 66° 259° (W) 01:03:15 437.250
TIGRISAT 25 Jul 00:55:15 00:58:55 24° 291° (WNW) 01:02:33 435.000
AO-85 25 Jul 00:59:34 01:03:49 67° 244° (WSW) 01:07:44 145.980
DX 1 25 Jul 01:03:44 01:08:02 75° 259° (WSW) 01:12:22 434.975-435.025
UNISAT 6 25 Jul 01:11:33 01:14:15 15° 293° (WNW) 01:16:54 437.425
NANOSAT C BR1 25 Jul 01:18:35 01:22:53 83° 283° (WNW) 01:27:08 145.865
ESTCUBE 1 25 Jul 01:19:37 01:23:00 21° 265° (W) 01:26:23 437.505/2401.250
UKube-1 25 Jul 01:22:35 01:26:48 56° 259° (W) 01:31:02 .
DUCHIFAT 1 25 Jul 01:24:13 01:28:29 76° 282° (WNW) 01:32:43 145.980
TISAT 1 25 Jul 01:31:16 01:34:49 27° 71° (ENE) 01:38:23 437.305
PHONESAT 2.4 25 Jul 01:38:30 01:39:57 13° 218° (SW) 01:41:23 2401.200-2431.200
QB50P1 25 Jul 01:39:38 01:43:41 42° 287° (WNW) 01:47:43 145.935-145.965
JAS-2 25 Jul 01:41:21 01:46:26 44° 100° (E) 01:51:56 435.910
POPSAT HIP 1 25 Jul 01:45:55 01:49:52 37° 287° (WNW) 01:53:48 437.405
VELOX 1 25 Jul 01:48:06 01:50:57 17° 266° (W) 01:53:48 145.980
BUGSAT 1 25 Jul 01:49:47 01:54:04 90° 179° (S) 01:58:19 437.445
SWISSCUBE 25 Jul 01:54:48 01:56:09 11° 64° (ENE) 01:57:31 437.505
AIST 1 25 Jul 01:57:52 02:02:14 87° 84° (E) 02:06:36
CUBEBUG 1 25 Jul 01:58:00 01:59:16 11° 268° (W) 02:00:34 437.445
Oscar 19 25 Jul 01:58:05 02:01:09 16° 93° (E) 02:04:13 437.125/150
SPROUT 25 Jul 02:01:57 02:05:28 25° 264° (W) 02:09:00 437.525
QB50P2 25 Jul 02:06:50 02:09:59 20° 291° (WNW) 02:13:07 145.880/145.840
POLYITAN 1 25 Jul 02:09:31 02:12:37 20° 291° (WNW) 02:15:44 437.675
BEESAT 25 Jul 02:14:37 02:17:40 17° 66° (ENE) 02:20:42 436.000
GONETS M04 25 Jul 02:27:49 02:33:57 20° 69° (ENE) 02:40:03
ITUPSAT 1 25 Jul 02:34:51 02:38:52 27° 70° (ENE) 02:42:55 437.325
Gurwin Techsat 1B 25 Jul 02:56:22 03:00:50 27° 96° (E) 03:05:16 435.225
Cosmos 2499 25 Jul 02:59:41 03:05:08 20° 69° (ENE) 03:10:19 435.465 / 435.565
TISAT 1 25 Jul 03:07:26 03:10:25 19° 265° (W) 03:13:27 437.305
ITAMSAT 1 25 Jul 03:26:48 03:29:51 16° 94° (E) 03:32:52 435.822/435.867
JAS-2 25 Jul 03:27:37 03:31:16 19° 293° (WNW) 03:35:06 435.910
SWISSCUBE 25 Jul 03:28:34 03:33:20 67° 258° (WSW) 03:38:07 437.505
Oscar 19 25 Jul 03:35:42 03:40:41 50° 287° (WNW) 03:45:40 437.125/150
JUGNU 25 Jul 03:40:33 03:44:06 16° 170° (S) 03:47:39 437.505
BEESAT 25 Jul 03:50:32 03:55:04 43° 261° (W) 03:59:37 436.000
AO-7 25 Jul 04:06:07 04:12:09 22° 95° (E) 04:18:08 29.400- 29.500
ITUPSAT 1 25 Jul 04:12:37 04:16:36 26° 263° (W) 04:20:36 437.325
GONETS M04 25 Jul 04:22:45 04:31:31 74° 267° (W) 04:40:19
DANDE 25 Jul 04:24:06 04:27:38 16° 93° (E) 04:30:43 436.750
CUSAT 1 25 Jul 04:24:34 04:28:56 33° 97° (E) 04:32:23 437.405
BEESAT 3 25 Jul 04:32:48 04:35:53 21° 53° (NE) 04:38:58 437.485
BEESAT 2 25 Jul 04:34:55 04:36:41 13° 49° (NE) 04:38:26 435.950
Gurwin Techsat 1B 25 Jul 04:36:04 04:40:42 31° 291° (WNW) 04:45:19 435.225
KKS-1 25 Jul 04:37:07 04:41:29 63° 75° (ENE) 04:45:53 437.445
ISS 25 Jul 04:43:03 04:44:02 11° 27° (NNE) 04:45:00 145.825
Cosmos 2499 25 Jul 04:51:13 04:58:54 63° 268° (W) 05:06:02 435.465 / 435.565
MOZHAYETS 4 25 Jul 04:53:14 04:57:53 82° 258° (WSW) 05:02:33
ITAMSAT 1 25 Jul 05:04:32 05:09:33 51° 288° (WNW) 05:14:32 435.822/435.867
STARS 25 Jul 05:22:34 05:26:57 80° 258° (WSW) 05:31:22 437.465
JUGNU 25 Jul 05:28:15 05:32:26 20° 180° (S) 05:36:37 437.505
SRMSAT 25 Jul 05:52:41 05:56:07 16° 170° (S) 05:59:32 437.500
HORYU 2 25 Jul 05:56:28 06:00:16 27° 97° (E) 06:04:03 437.375
AO-7 25 Jul 05:57:08 06:05:25 69° 291° (WNW) 06:13:38 29.400- 29.500
DANDE 25 Jul 06:04:06 06:10:20 52° 278° (W) 06:15:03 436.750
CUBESAT XI-V 25 Jul 06:06:02 06:10:37 68° 76° (ENE) 06:15:13 437.345
CUSAT 1 25 Jul 06:08:36 06:10:43 13° 281° (W) 06:12:38 437.405
BEESAT 3 25 Jul 06:10:12 06:13:30 26° 248° (WSW) 06:16:47 437.485
BEESAT 2 25 Jul 06:10:55 06:14:48 51° 245° (WSW) 06:18:39 435.950
PCSat 25 Jul 06:14:09 06:19:33 66° 63° (ENE) 06:24:55 145.827
ISS 25 Jul 06:17:39 06:20:54 83° 39° (NE) 06:24:09 145.825
GONETS M04 25 Jul 06:25:50 06:26:42 10° 284° (WNW) 06:27:35
NOAA 18 25 Jul 06:43:18 06:45:56 13° 93° (E) 06:48:32 137.9125
GOMX 1 25 Jul 06:43:39 06:44:32 10° 92° (E) 06:45:25 467.674
NOAA 15 25 Jul 06:54:06 06:58:20 24° 96° (E) 07:02:33 137.62
BRITE-PL 25 Jul 07:03:43 07:08:18 40° 99° (E) 07:13:12 437.365/2234.400
LilacSat-2 25 Jul 07:14:33 07:17:44 24° 96° (E) 07:20:53 437.200
JUGNU 25 Jul 07:17:18 07:20:46 16° 190° (S) 07:24:12 437.505
HORYU 2 25 Jul 07:33:10 07:36:39 23° 291° (WNW) 07:40:06 437.375
RS-15 25 Jul 07:38:50 07:49:52 62° 111° (ESE) 08:01:32 29.354- 29.394
SRMSAT 25 Jul 07:40:25 07:44:35 20° 180° (S) 07:48:46 437.500
Cubesat XI-IV 25 Jul 07:40:42 07:45:56 53° 101° (E) 07:51:07 437.490
AIST 2 25 Jul 07:51:23 07:55:34 78° 61° (ENE) 07:59:43 435.215
AO-7 25 Jul 07:53:26 07:56:39 13° 309° (NW) 07:59:52 29.400- 29.500
O/OREOS (USA 219) 25 Jul 07:55:00 07:59:27 53° 68° (ENE) 08:03:54 437.305
PCSat 25 Jul 07:59:55 08:02:17 13° 257° (WSW) 08:04:40 145.827
CUTE-I 25 Jul 08:05:03 08:10:25 88° 283° (WNW) 08:15:44 437.470
HO-68 25 Jul 08:07:15 08:09:52 12° 91° (E) 08:12:28 435.675
STRAND 1 25 Jul 08:15:29 08:20:38 87° 257° (WSW) 08:25:49 437.568
GOMX 1 25 Jul 08:17:50 08:22:53 75° 284° (WNW) 08:28:13 467.674
NOAA 18 25 Jul 08:21:28 08:26:58 65° 287° (WNW) 08:32:24 137.9125
DOVE 4 25 Jul 08:22:43 08:27:48 57° 100° (E) 08:32:59 437.250
PRISM 25 Jul 08:29:35 08:31:31 13° 67° (ENE) 08:33:25 437.425
NOAA 15 25 Jul 08:33:24 08:38:06 34° 290° (WNW) 08:42:48 137.62
BRITE-PL 25 Jul 08:43:08 08:46:30 19° 290° (WNW) 08:50:02 437.365/2234.400
LilacSat-2 25 Jul 08:49:10 08:51:50 18° 290° (WNW) 08:54:30 437.200
CINEMA 3 25 Jul 08:51:45 08:56:14 32° 96° (E) 09:00:39 145.822/145.860
CANX-2 25 Jul 09:11:59 09:16:01 44° 99° (E) 09:20:01 2200.000
AAUSAT CUBESAT 2 25 Jul 09:21:30 09:24:13 17° 94° (E) 09:26:55 437.432
Cubesat XI-IV 25 Jul 09:22:11 09:25:31 17° 295° (WNW) 09:28:50 437.490
YUBILEINY 25 Jul 09:22:42 09:27:47 17° 80° (E) 09:32:52 435.215
CUTE 1.7 + AOD 2 25 Jul 09:25:47 09:29:56 56° 100° (E) 09:34:03 437.475
SRMSAT 25 Jul 09:29:32 09:33:04 16° 190° (S) 09:36:37 437.500
SO-50 25 Jul 09:34:38 09:39:31 78° 299° (WNW) 09:44:24 436.795
O/OREOS (USA 219) 25 Jul 09:37:02 09:38:18 11° 262° (W) 09:39:36 437.305
Cosmos 2491 25 Jul 09:50:38 09:59:17 61° 81° (E) 10:07:56 435.465 / 435.565
HO-68 25 Jul 09:51:05 09:58:20 89° 101° (ESE) 10:05:31 435.675
RS-15 25 Jul 09:52:30 10:02:55 38° 314° (NW) 10:13:54 29.354- 29.394
UWE-3 25 Jul 09:57:05 10:01:06 29° 96° (E) 10:04:59 435.000/436.395/437.385
DOVE 4 25 Jul 10:02:03 10:04:59 15° 293° (WNW) 10:07:58 437.250
PRISM 25 Jul 10:02:36 10:06:26 39° 261° (W) 10:10:16 437.425
ZACube-1 25 Jul 10:03:14 10:06:38 21° 95° (E) 10:09:57 437.345
FUNcube-1 25 Jul 10:03:41 10:06:56 20° 94° (E) 10:10:07 145.935
SEEDS 25 Jul 10:09:11 10:13:16 58° 285° (WNW) 10:17:20 437.485
CUBEBUG 2 25 Jul 10:13:55 10:18:39 71° 101° (E) 10:23:14 437.445
TIGRISAT 25 Jul 10:14:14 10:17:05 16° 67° (ENE) 10:19:58 435.000
COMPASS 1 25 Jul 10:25:12 10:29:14 54° 285° (WNW) 10:33:15 437.405
UNISAT 6 25 Jul 10:28:48 10:32:33 25° 70° (ENE) 10:36:22 437.425
CINEMA 3 25 Jul 10:29:07 10:33:08 25° 291° (WNW) 10:37:08 145.822/145.860
Cosmos 2504 25 Jul 10:34:03 10:39:06 17° 79° (E) 10:44:08 435.465 / 435.565
Oscar 11 25 Jul 10:48:20 10:52:39 76° 101° (E) 10:56:57 145.826/435.025
CANX-2 25 Jul 10:49:37 10:51:26 13° 293° (WNW) 10:53:15 2200.000
AAUSAT CUBESAT 2 25 Jul 10:56:09 10:59:42 29° 288° (WNW) 11:03:15 437.432
M-CUBED/EXP-1 PRIME 25 Jul 11:03:31 11:07:46 33° 102° (ESE) 11:11:58 437.505
ANTELSAT 25 Jul 11:06:25 11:10:58 67° 76° (ENE) 11:15:37 437.575/2403.000
YUBILEINY 25 Jul 11:14:38 11:23:24 81° 276° (W) 11:32:17 435.215
QB50P2 25 Jul 11:21:07 11:23:15 14° 67° (ENE) 11:25:23 145.880/145.840
POLYITAN 1 25 Jul 11:23:40 11:25:53 14° 67° (ENE) 11:28:07 437.675
AUBIESAT-1 25 Jul 11:31:18 11:35:52 55° 105° (ESE) 11:40:23 437.475
UWE-3 25 Jul 11:33:48 11:37:20 22° 291° (WNW) 11:40:48 435.000/436.395/437.385
HUMSAT D 25 Jul 11:36:15 11:40:20 50° 100° (E) 11:44:21 437.325/437.525
DELFI C3 25 Jul 11:36:46 11:40:40 63° 283° (WNW) 11:44:32 145.870
ZACube-1 25 Jul 11:39:01 11:42:52 28° 289° (WNW) 11:46:38 437.345
FUNcube-1 25 Jul 11:39:15 11:43:10 30° 289° (WNW) 11:46:59 145.935
HO-68 25 Jul 11:41:15 11:45:03 15° 302° (WNW) 11:48:52 435.675
Cosmos 2491 25 Jul 11:48:51 11:55:22 24° 277° (W) 12:01:54 435.465 / 435.565
TIGRISAT 25 Jul 11:49:03 11:53:22 41° 262° (W) 11:57:47 435.000
JAS-2 25 Jul 11:53:13 11:55:43 13° 65° (ENE) 11:58:09 435.910
CUBEBUG 2 25 Jul 11:54:25 11:54:33 10° 296° (WNW) 11:54:41 437.445
UNISAT 6 25 Jul 12:05:18 12:09:07 26° 264° (W) 12:13:01 437.425
NANOSAT C BR1 25 Jul 12:06:51 12:10:50 42° 74° (ENE) 12:14:51 145.865
DUCHIFAT 1 25 Jul 12:12:10 12:16:10 45° 74° (ENE) 12:20:14 145.980
CUBEBUG 1 25 Jul 12:12:47 12:14:35 12° 93° (E) 12:16:23 437.445
RS-15 25 Jul 12:15:05 12:20:35 14° 346° (NNW) 12:26:11 29.354- 29.394
Cosmos 2504 25 Jul 12:22:27 12:31:16 86° 276° (W) 12:40:13 435.465 / 435.565
QB50P1 25 Jul 12:27:44 12:31:57 83° 76° (ENE) 12:36:13 145.935-145.965
POPSAT HIP 1 25 Jul 12:33:58 12:38:11 84° 258° (WSW) 12:42:29 437.405
BUGSAT 1 25 Jul 12:35:55 12:39:37 35° 72° (ENE) 12:43:22 437.445
M-CUBED/EXP-1 PRIME 25 Jul 12:38:21 12:42:01 23° 295° (WNW) 12:45:42 437.505
AISAT 25 Jul 12:48:37 12:52:34 30° 98° (E) 12:56:29 437.250
QB50P2 25 Jul 12:54:38 12:58:39 42° 261° (W) 13:02:42 145.880/145.840
DX 1 25 Jul 12:56:06 12:59:41 24° 97° (E) 13:03:15 434.975-435.025
